2023/08/21 00:00:00, 0.1,24.6
2023/08/21 00:10:00, 0.1,24.7
2023/08/21 00:20:00, 0.1,24.7
2023/08/21 00:30:00, 0.1,24.5
2023/08/21 00:40:00, 0.1,24.5
2023/08/21 00:50:00, 0.1,24.3
2023/08/21 01:00:00, 0.1,24.3
2023/08/21 01:10:00, 0.1,24.0
2023/08/21 01:20:00, 0.2,23.9
2023/08/21 01:30:00, 0.2,24.0
2023/08/21 01:40:00, 0.2,23.7
2023/08/21 01:50:00, 0.2,23.8
2023/08/21 02:00:00, 0.2,23.8
2023/08/21 02:10:00, 0.2,23.6
2023/08/21 02:20:00, 0.1,23.8
2023/08/21 02:30:00, 0.1,23.7
2023/08/21 02:40:00, 0.1,23.6
2023/08/21 02:50:00, 0.1,23.7
2023/08/21 03:00:00, 0.2,23.5
2023/08/21 03:10:00, 0.2,23.4
2023/08/21 03:20:00, 0.1,23.2
2023/08/21 03:30:00, 0.2,23.2
2023/08/21 03:40:00, 0.1,23.2
2023/08/21 03:50:00, 0.1,23.1
2023/08/21 04:00:00, 0.1,23.0
2023/08/21 04:10:00, 0.1,22.9
2023/08/21 04:20:00, 0.1,22.8
2023/08/21 04:30:00, 0.1,22.8
2023/08/21 04:40:00, 0.2,23.0
2023/08/21 04:50:00, 0.2,22.7
2023/08/21 05:00:00, 0.2,22.6
2023/08/21 05:10:00, 0.2,22.6
2023/08/21 05:20:00, 0.2,22.7
2023/08/21 05:30:00, 0.2,22.7
2023/08/21 05:40:00, 0.2,22.6
2023/08/21 05:50:00, 0.2,22.9
2023/08/21 06:00:00, 0.2,22.8
2023/08/21 06:10:00, 0.1,23.3
2023/08/21 06:20:00, 0.2,23.4
2023/08/21 06:30:00, 0.2,23.7
2023/08/21 06:40:00, 0.1,24.1
2023/08/21 06:50:00, 0.2,24.4
2023/08/21 07:00:00, 0.2,24.5
2023/08/21 07:10:00, 0.1,24.9
2023/08/21 07:20:00, 0.1,25.3
2023/08/21 07:30:00, 0.1,25.4
2023/08/21 07:40:00, 0.1,26.1
2023/08/21 07:50:00, 0.1,26.8
2023/08/21 08:00:00, 0.1,27.2
2023/08/21 08:10:00, 0.2,27.2
2023/08/21 08:20:00, 0.2,27.6
2023/08/21 08:30:00, 0.2,28.6
2023/08/21 08:40:00, 0.2,29.1
2023/08/21 08:50:00, 0.2,29.7
2023/08/21 09:00:00, 0.2,30.6
2023/08/21 09:10:00, 0.1,31.2
2023/08/21 09:20:00, 0.2,31.8
2023/08/21 09:30:00, 0.3,32.0
2023/08/21 09:40:00, 0.4,32.2
2023/08/21 09:50:00, 0.4,32.9
2023/08/21 10:00:00, 0.4,33.6
2023/08/21 10:10:00, 0.4,34.1
2023/08/21 10:20:00, 0.4,34.7
2023/08/21 10:30:00, 0.4,34.9
2023/08/21 10:40:00, 0.4,34.4
2023/08/21 10:50:00, 0.4,34.3
2023/08/21 11:00:00, 0.5,34.3
2023/08/21 11:10:00, 0.5,35.0
2023/08/21 11:20:00, 0.5,34.8
2023/08/21 11:30:00, 0.5,35.0
2023/08/21 11:40:00, 0.5,35.3
2023/08/21 11:50:00, 0.5,35.3
2023/08/21 12:00:00, 0.5,33.8
2023/08/21 12:10:00, 0.4,34.2
2023/08/21 12:20:00, 0.5,34.9
2023/08/21 12:30:00, 0.5,34.7
2023/08/21 12:40:00, 0.6,35.1
2023/08/21 12:50:00, 0.5,33.9
2023/08/21 13:00:00, 0.4,33.5
2023/08/21 13:10:00, 0.3,33.2
2023/08/21 13:20:00, 0.4,34.3
2023/08/21 13:30:00, 0.5,33.8
2023/08/21 13:40:00, 0.5,35.3
2023/08/21 13:50:00, 0.5,37.1
2023/08/21 14:00:00, 0.5,37.3
2023/08/21 14:10:00, 0.5,37.2
2023/08/21 14:20:00, 0.5,38.2
2023/08/21 14:30:00, 0.6,36.6
2023/08/21 14:40:00, 0.4,33.6
2023/08/21 14:50:00, 0.4,32.9
2023/08/21 15:00:00, 0.3,32.5
2023/08/21 15:10:00, 0.3,32.0
2023/08/21 15:20:00, 0.3,31.3
2023/08/21 15:30:00, 0.3,31.3
2023/08/21 15:40:00, 0.3,30.6
2023/08/21 15:50:00, 0.3,30.7
2023/08/21 16:00:00, 0.3,30.4
2023/08/21 16:10:00, 0.2,30.0
2023/08/21 16:20:00, 0.1,29.8
2023/08/21 16:30:00, 0.1,29.9
2023/08/21 16:40:00, 0.1,30.0
2023/08/21 16:50:00, 0.2,34.3
2023/08/21 17:00:00, 0.3,32.0
2023/08/21 17:10:00, 0.3,29.5
2023/08/21 17:20:00, 0.1,28.9
2023/08/21 17:30:00, 0.1,28.2
2023/08/21 17:40:00, 0.1,27.9
2023/08/21 17:50:00, 0.1,27.8
2023/08/21 18:00:00, 0.1,27.6
2023/08/21 18:10:00, 0.1,27.3
2023/08/21 18:20:00, 0.1,27.4
2023/08/21 18:30:00, 0.2,27.2
2023/08/21 18:40:00, 0.1,26.7
2023/08/21 18:50:00, 0.1,26.6
2023/08/21 19:00:00, 0.2,26.4
2023/08/21 19:10:00, 0.1,25.6
2023/08/21 19:20:00, 0.1,26.1
2023/08/21 19:30:00, 0.1,26.1
2023/08/21 19:40:00, 0.1,26.1
2023/08/21 19:50:00, 0.2,25.9
2023/08/21 20:00:00, 0.2,26.2
2023/08/21 20:10:00, 0.1,26.0
2023/08/21 20:20:00, 0.2,24.7
2023/08/21 20:30:00, 0.2,24.4
2023/08/21 20:40:00, 0.2,24.6
2023/08/21 20:50:00, 0.2,24.3
2023/08/21 21:00:00, 0.2,24.4
2023/08/21 21:10:00, 0.3,23.9
2023/08/21 21:20:00, 0.2,24.0
2023/08/21 21:30:00, 0.2,23.9
2023/08/21 21:40:00, 0.3,24.1
2023/08/21 21:50:00, 0.3,23.7
2023/08/21 22:00:00, 0.2,23.8
2023/08/21 22:10:00, 0.3,23.6
2023/08/21 22:20:00, 0.2,23.7
2023/08/21 22:30:00, 0.3,23.6
2023/08/21 22:40:00, 0.2,23.3
2023/08/21 22:50:00, 0.2,23.6
2023/08/21 23:00:00, 0.2,23.3
2023/08/21 23:10:00, 0.2,23.5
2023/08/21 23:20:00, 0.3,23.4
2023/08/21 23:30:00, 0.2,23.3
2023/08/21 23:40:00, 0.2,23.3
2023/08/21 23:50:00, 0.2,23.3
